COSMOS 1275 DEB, 39959

Orbit data source: Space-Track

COSMOS 1275 DEB, 39959 is space debris in LEO originally from a launch on Thu, 04 Jun 1981 UTC launched from the Plesetsk Missile And Space Complex (PKMTR). Debris objects in space refer to the collection of defunct objects orbiting the Earth. Examples of debris include non-operational satellites, rocket bodies, and fragments generated from explosions, collisions, or faulty payload assembly.

Loading next visibility...
Identifier
39959, 1981-053NV
Orbit
LEO
Country
Flag of CISCIS
Related business
Manufacturer
Unknown
Mission
Spacecraft
Bus & Motor
Unknown
Mass
Unknown
Launch date (UTC)
1981-06-04 (45 years ago)
Launch vehicle
Unknown
Launch site
Plesetsk Missile And Space Complex (PKMTR)
Object type
Payload
Rocket body
Debris
Shape & HBR
Unknown shape, 0.1 m
Radar Cross Section
Small (<0.1 m²)

Expand to show TLE details & history
Last TLE update: 1 week ago

TLE from 1 week ago
0 COSMOS 1275 DEB
1 39959U 81053NV  26065.48296759  .00000148  00000-0  13695-3 0  9991
2 39959  82.9646 334.1548 0040550  76.0867 284.4795 13.75495233589720
Epoch: 2026-03-06T11:35Z
TLE epoch observation values (Epoch: 2026-03-06T11:35:28.399Z)
Latitude
-0.00001°
Longitude
-3.93186°
Altitude
975.461 km
Speed
7.368 km/s
True Right ascension
22h 16m 37s
True Declination
0° 00' 00"
Sunlit
Object was in daylight at epoch
Visualization orbit readout
Latitude
Unknown
Longitude
Unknown
Altitude
Unknown
Speed
Unknown
Apparent Right ascension
Unknown
Apparent Declination
Unknown
Sunlit
N/A
Visualization observer readout
Local Sidereal Time
06:14:06
Azimuth
Unknown
Elevation
Unknown
Doppler factor
Unknown
Orbital elements
Apogee altitude
1,006.881 km
Perigee altitude
947.23 km
Semi-major axis
7,355.192 km
Eccentricity
0.00406
Inclination
82.9646°
RAAN
334.1548°
Arg. of periapsis
76.0867°
True anomaly
284.02902°
Mean anomaly
284.4795°
Eccentric anomaly
284.25432°
Mean motion
3.44074 °/min
Orbital period
104.63 mins
BSTAR
0.00013695
Loading maneuver chart data...
Computing Atmospheric mass density...
Loading historical data...
Loading historical data...
Loading historical data...
Loading historical data...
Loading historical data...
Loading historical data...
Loading historical data...

Documentation

Showing up to 5 results
|